Погода в Таразе

Погода в Таразе : погода сейчас, прогноз погоды и архив. Всё, что Вы хотите узнать о погоде в Таразе!

Поиск расширенной информации на нашем сайте:

Другие новости

Новости СМИ2

Главная страница сайта

Новости сайта

02.10.2013

Напоминаем, что на нашем новом сайте вы можете получить высокодетализированные прогнозы погоды по пунктам России, СНГ и мира (включающие важные для авиации метеовеличины, такие как направление и скорость ветра, видимость, явления погоды, количество и форма облачности, нижняя и верхняя граница облачности), а также ознакомиться с разнообразными материалами по авиационной метеорологии и подборкой полезных ссылок на эту тему.

Сайт Метеоцентр.Азия посвящён разработке технологий оптимизации авиаметеорологического обслуживания, включая проектирование и перспективное создание нескольких автоматизированных авиаметеорологических систем:
- система выпуска высокодетальных прогностических карт явлений погоды для нижнего воздушного пространства по России и ближнему зарубежью;
- система верификации прогнозов TAF (выпускаемых синоптиками официальных АМСГ РФ и ближнего зарубежья) и AUTOTAF (выпускаемых сайтом Метеоцентр.Азия) - выявление ошибок, онлайн-сопоставление с фактической погодой METAR, автоматическое внесение коррективов в прогнозы при резком отклонении фактической погоды от прогноза, подсчёт оправдываемости прогнозов по элементам и в целом;
- система обработки, анализа и отображения авиаметеорологической информации для применения провайдерами метеорологической информации.

Рекомендуем: Тариф защита ddos.

Погода в Таразе - сегодня

Время (UTC), дата Ветер
(°,м/с) 
Видим.   Явления Облачность Т
(°С)
Тd
(°С)
f(%) Тe
(°С)
Pmin
(гПа)
dP
(гПа)
Po
(мм)
O2
(г/м3)
Тmin Tmax R s Состояние
почвы
00 25.04.17 тихо ()   10 км    ясно 
+9.2 +6.8 85 +9  1016.2  -0.5  705  274           
03 25.04.17 тихо ()   20000 м    ясно 
+16.2 +9.5 64 +18  1014.4  0.2  705  266           
06 25.04.17 030 (СВ) 20000 м    ясно 
+21.3 +11.4 53 +26  1012.5  -0.5  705  261  +8.6         
09 25.04.17 340 (С) 20000 м    ясно 
+24.2 +11.2 44 +28  1011.4  -0.3  705  259           
12 25.04.17 330 (СЗ) 20000 м    ясно 
+26.5 +10.3 36 +29  1010.2  -0.7  704  257           
15 25.04.17 230 (ЮЗ) 10 км    ясно 
+19.8 +12.5 63 +27  1012.4  0.7  705  262    +26.9       
18 25.04.17 тихо ()   10 км    ясно 
+14.8 +11.1 78 +19  1014.3  0.4  705  267    +26.9       
21 25.04.17 260 (З) 10 км    ясно 
+14.2 +10.2 77 +18  1013.7  -0.8  704  268           
00 26.04.17 240 (ЮЗ) 10 км    ясно 
+11 +8.2 83 +12  1014.4  -0.1  704  271           
03 26.04.17 тихо ()   20000 м    ясно 
+19 +10.3 57 +22  1013.6  1.3  705  264           
06 26.04.17 020 (С) 20000 м    ясно 
+24.6 +10.2 40 +27  1012.1  -0.1  705  259  +10.3         
09 26.04.17 350 (С) 20000 м    ясно 
+27 +11.2 37 +31  1011.8  0.3  705  256           
12 26.04.17 360 (С) 20000 м    3/0 средняя 
[Ac lent]
+26.8 +9.4 33 +28  1012.4  0.4  706  257           
15 26.04.17 тихо ()   10 км    4/0 верхняя 
[Ci fib]
+21.7 +13.4 59 +29  1014.3  0.7  706  261    +27.7       
18 26.04.17 250 (З) 10 км    ясно 
+17.6 +11.5 67 +23  1016.5  707  265    +27.7       
21 26.04.17 340 (С) 12-15{17}  10 км    3/0 средняя 
[Ac lent]
+15.7 +10.2 70 +17  1020.6  3.3  709  268           
00 27.04.17 330 (СЗ) 2{15}  10 км    3/0 средняя 
[Ac lent]
+12.4 +7.3 71 +13  1021.9  0.3  710  272           
03 27.04.17 350 (С) 20000 м    ясно 
+13.2 +3 50 +13  1022.6  0.8  710  272           
06 27.04.17 340 (С) 20000 м    ясно 
+17 +6.7 51 +17  1022.5  0.9  711  268  +11.1         
09 27.04.17 340 (С) 20000 м    10/10 1000 м 
[Sc diur, vesp]
+16.3 +5.8 50 +16  1023.2  0.5  711  269           
12 27.04.17 350 (С) 20000 м    10/10 600 м кучево-дожд. 
[Cb cap]
+12.6 +7.4 71 +12  1026  1.7  713  273           
15 27.04.17 050 (СВ) 10 км  слаб. ливневой дождь  10/10 600 м кучево-дожд. 
[Cb cap]
+9.5 +8.5 93 +10  1028.2  1.3  713  276    +18.1     
18 27.04.17 360 (С) 4000 м  слаб. дождь{ливн. осадки}  10/10 600 м 
[Ns]
+8.5 +7.8 95 +8  1028.3  -0.2  713  277    +18.1     
21 27.04.17 320 (СЗ) 2000 м  дождь  10/10 600 м 
[Ns]
+7.6 +7.1 97 +7  1028.9  0.3  714  278           
00 28.04.17 280 (З) 4000 м  слаб. дождь  10/10 600 м 
[Ns]
+7.4 +7 97 +7  1029  714  279           
Время (UTC), дата Ветер
(°,м/с) 
Видим.   Явления Облачность Т
(°С)
Тd
(°С)
f(%) Тe
(°С)
Pmin
(гПа)
dP
(гПа)
Po
(мм)
O2
(г/м3)
Тmin Tmax R s Состояние
почвы

Для получения пояснительной информации подведите курсор к названию столбца.

ПОГОДА в Таразе - архив

Всё, что Вы хотите узнать о погоде в Таразе - удобно и подробно!

Выберите нужную дату (начиная с 1 января 2015* года) и нажмите кнопку "Найти".
Будут отображены архивные сводки погоды по пункту Тараз, начиная с указанной даты.


Отображать данные в формате CSV (для использования в таблицах Excel)


Внимание! Наш архив погоды предназначен исключительно для личного некоммерческого использования в познавательных целях. Если Вам необходимы официальные справки о состоянии погоды (для производственных, юридических, коммерческих и т.п. целей), обращайтесь в органы Росгидромета.

*Примечание: данная дата относится к архиву по метеостанциям СССР (Россия, СНГ, Балтия).
Архив по метеостанциям Зарубежной Европы и Азии (кроме Китая) хранится 10 дней, по другим регионам земного шара (Китай, Африка, Америка, Австралия, Океания) - 1 день.

Тараз - район местоположения метеостанции


Название, широта, долгота, высота метеостанции:
Тараз (город) 42.9°ш. 71.4°д. 651 м над ур. моря [Казахстан]

Дополнительная информация

В oтличие oт бoльшинства пoгoдных сайтoв мы публикуем пoдрoбную метеoинфoрмацию в детальнoм прoфессиoнальнoм фoрмате.

Характеристики температуры и влажнoсти вoздуха измеряются на высoте 2 м в тени вдали oт зданий и деревьев.
Скoрoсть ветра измеряется на высoте 10 м (на урoвне рoста челoвека скoрoсть ветра ниже в 1.5-2 раза). Если метеoстанция нахoдится в гoрoде или в лесу, тo скoрoсть ветра занижена на 2-4 м/с пo сравнению с oткрытым местoм. Скoрoсть ветра над акватoриями крупных рек и oзёр, а также на вершинах хoлмoв на 2-5 м/с выше, чем в oбычных услoвиях.
Атмoсфернoе давление в разных тoчках местнoсти мoжет значительнo oтличаться oт давления на метеoстанции, в зависимoсти oт услoвий рельефа (при пoдъёме на 10 м давление пoнижается примернo на 1 мм рт.ст.).